Location: Menands
(42.6920°N, 73.7246°W)
Time: 21:31:22
(UTC+00:00)

Meteor 1-31 Rocket - Pass Details

Date: 18 February 2026
Orbit: 458 x 474 km, 97.6° (Epoch: 8 March)

Event Time Altitude Azimuth Distance (km) Brightness Sun altitude
Exits shadow 23:55:05 16° 29° (NNE) 1,286 4.4 -16.1°
Drops below altitude 10° 23:56:07 10° 15° (NNE) 1,611 5.0 -16.3°
Sets 23:58:26 0° 1° (N) 2,490 6.2 -16.8°
